Vertical_Velocity
-1 1 -2 2 5 6 -1 6 3 -1 -5 -7 -6 -0 0 -1 2 0 -0 1 -2 0 1 2 3 -0 2 -2 1 -1 0 -0 1 1 -0 1 -1 4
-4 3 1 -2 2 5 1 -1 -1 1 0 2 -2 -3 -2 -1 0 -0 -0 1 2 -1 -1 -1 3 2 -1 1 -1 -3 0 0 -0 0 -1 -1 -3 2
3 -5 1 3 -0 0 5 10 -2 0 0 -4 -0 -2 -6 -1 -1 -3 -2 -2 -2 0 1 0 -0 -2 1 -0 -1 1 -1 -2 0 -1 -1 -2 -1 -1
-0 1 1 2 -3 -1 1 -0 1 3 3 -3 -1 1 -2 -0 2 -2 -2 -0 -2 -1 -1 -2 -0 -0 1 1 1 -0 -1 -2 2 0 5 2 -6 1
1 1 -1 1 -4 -0 -1 -1 0 3 2 -2 -5 -2 1 -4 1 1 1 1 -1 0 -1 -0 0 2 -0 -0 1 -1 -1 3 1 1 1 4 -1 -7
2 -2 0 1 -1 1 1 -1 -0 4 1 4 -3 0 3 2 -2 -0 -2 -2 0 0 2 0 1 -0 -4 1 0 4 -1 -2 3 -3 4 -1 0 3
-1 -2 -2 -1 -1 1 2 -4 1 -1 2 2 1 -0 -6 -3 -14 -2 -0 5 -1 1 -2 1 2 1 -1 -2 3 0 1 3 1 2 3 -3 -2 -1
1 0 -0 1 -3 -2 0 1 -4 -0 6 3 4 2 -5 -8 -1 0 7 1 -8 1 -2 1 0 2 6 -3 1 3 3 4 -1 -2 0 2 -3 -4
1 1 -1 -2 -1 -2 -2 -3 11 14 4 2 9 -12 -0 0 10 3 -1 -1 -3 -5 3 -3 -0 -0 3 1 0 1 -1 1 1 1 -4 -1 2 1
-3 -1 -1 1 3 1 0 -0 -1 1 2 -0 -1 -1 -5 1 16 7 6 10 5 1 -3 -9 1 0 3 -0 -1 -1 2 4 1 0 -7 1 1 3
-2 -0 2 0 -1 3 1 2 -1 -9 3 -1 2 3 -1 3 2 4 -8 2 -5 -7 -1 -4 2 -1 -2 2 -1 -3 6 5 -2 -4 -2 -3 2 2
0 -3 -1 -4 2 4 6 -4 -5 -9 1 1 -5 -3 -0 1 2 0 6 -0 1 1 1 -6 3 2 3 -1 -2 -5 1 0 2 3 -9 4 5 1
-1 -1 1 1 -0 2 3 2 -7 8 3 0 0 5 0 2 2 0 0 4 3 -0 0 3 1 4 5 3 -0 -1 2 2 -6 -6 3 5 0 -0
-2 -0 -2 1 4 2 3 -0 2 1 4 -1 0 0 -0 -1 -0 -1 -0 0 2 -1 -2 4 -1 2 4 1 2 1 4 -0 1 2 1 -1 -3 4
-1 -2 -1 1 4 4 0 -0 7 -0 1 1 -1 -2 1 5 -3 -1 -1 -1 2 -0 -0 -3 2 1 3 1 3 0 3 -3 0 -1 -1 0 2 -0
-0 -4 -1 4 2 -0 5 2 -3 -1 -2 -5 -1 4 2 -0 -1 -1 2 0 1 -1 1 2 0 1 2 -2 2 -3 -4 -2 -1 0 1 2 -3 -2
4 -3 -1 3 3 -3 -2 -0 1 6 -3 -3 -2 -2 0 2 0 -0 2 2 -2 -0 -0 -1 3 2 2 8 0 1 3 -3 2 -0 2 1 -1 0
-0 4 -5 -2 -1 -0 -2 -0 -1 -0 -1 -1 -0 0 -1 -1 1 1 1 -0 -2 -2 1 2 1 -2 2 6 2 1 1 -0 1 0 -1 1 -0 -1
-2 0 -2 -2 -3 -3 2 0 2 -3 3 3 1 1 2 2 0 1 2 1 0 3 0 5 5 1 3 -1 -1 -0 0 0 -1 -2 1 -1 -3 -0
2 0 -2 -3 -2 -5 4 -2 2 3 -3 -1 1 1 -1 0 1 -0 -0 6 -1 2 0 2 2 -2 -2 -3 -6 -3 -2 1 -1 -1 0 2 2 -1
5 4 1 2 1 1 2 2 4 -0 -0 0 -3 1 -0 -2 1 5 1 -2 4 4 -2 -0 -0 6 2 1 1 -4 -2 1 0 -1 1 1 -1 -3
1 -4 2 3 -1 1 2 2 8 0 -1 8 -3 3 0 2 -2 3 4 -1 -2 0 2 3 -1 2 2 -0 -1 -3 -1 -1 -1 2 -3 -3 -2 -2
-4 -0 -1 1 -1 1 2 1 7 1 8 2 4 4 8 -7 3 5 3 -3 3 2 -0 -1 -0 3 2 -0 -1 1 1 2 4 1 -1 -6 -7 -4
Height
1567 1569 1572 1574 1575 1577 1579 1580 1583 1583 1583 1585 1586 1587 1587 1585 1586 1586 1587 1587 1589 1590 1592 1594 1595 1596 1597 1596 1597 1598 1598 1599 1600 1600 1600 1602 1602 1602
1561 1562 1566 1567 1569 1571 1573 1575 1577 1579 1579 1581 1583 1584 1584 1584 1583 1583 1582 1583 1584 1586 1588 1589 1591 1592 1593 1594 1594 1595 1597 1597 1598 1598 1599 1600 1601 1601
1553 1557 1558 1561 1562 1565 1568 1569 1571 1574 1575 1576 1578 1580 1581 1582 1581 1581 1580 1579 1580 1582 1584 1585 1587 1588 1589 1590 1591 1592 1593 1595 1595 1596 1596 1597 1599 1599
1547 1550 1552 1555 1557 1558 1560 1562 1565 1567 1569 1570 1572 1575 1576 1577 1578 1578 1578 1577 1577 1578 1579 1580 1582 1583 1585 1586 1587 1588 1589 1591 1592 1594 1594 1593 1595 1598
1540 1543 1546 1549 1551 1553 1555 1556 1559 1561 1562 1564 1565 1568 1570 1571 1573 1574 1574 1574 1575 1575 1575 1575 1576 1578 1580 1581 1582 1583 1584 1586 1587 1589 1591 1590 1590 1592
1534 1537 1539 1542 1544 1546 1548 1550 1552 1553 1555 1556 1558 1560 1562 1564 1567 1568 1570 1570 1571 1572 1572 1572 1572 1573 1574 1575 1577 1578 1580 1581 1582 1584 1586 1586 1588 1588
1527 1530 1532 1534 1536 1538 1540 1541 1544 1545 1546 1548 1549 1551 1553 1555 1558 1561 1563 1565 1566 1567 1568 1568 1568 1569 1570 1570 1571 1573 1575 1576 1577 1579 1580 1580 1583 1584
1520 1522 1524 1526 1528 1530 1532 1533 1535 1536 1535 1537 1540 1541 1544 1547 1551 1554 1558 1559 1560 1562 1563 1565 1565 1565 1566 1566 1567 1568 1569 1570 1571 1572 1574 1574 1576 1579
1512 1514 1515 1517 1520 1521 1523 1525 1526 1527 1530 1532 1532 1535 1537 1540 1544 1547 1550 1553 1555 1556 1559 1560 1560 1561 1561 1561 1562 1563 1564 1565 1566 1567 1568 1569 1571 1572
1504 1506 1508 1510 1511 1513 1514 1516 1518 1520 1521 1525 1526 1530 1532 1533 1535 1540 1544 1547 1550 1551 1553 1554 1555 1556 1556 1556 1556 1558 1559 1559 1560 1562 1563 1564 1565 1565
1496 1499 1501 1501 1504 1506 1507 1508 1510 1512 1516 1517 1520 1524 1528 1531 1535 1537 1539 1542 1544 1546 1547 1548 1549 1551 1551 1550 1550 1553 1554 1553 1554 1556 1556 1559 1559 1559
1488 1490 1493 1494 1497 1499 1500 1502 1503 1506 1509 1512 1514 1519 1522 1525 1529 1532 1535 1536 1538 1539 1542 1543 1543 1546 1545 1544 1544 1547 1548 1548 1548 1550 1552 1553 1552 1552
1482 1483 1484 1488 1490 1492 1494 1495 1497 1502 1504 1507 1509 1512 1516 1519 1523 1526 1528 1531 1532 1533 1536 1537 1538 1540 1540 1539 1538 1540 1542 1542 1544 1546 1547 1547 1548 1548
1475 1477 1478 1480 1483 1485 1487 1490 1492 1495 1498 1500 1503 1505 1508 1512 1517 1520 1523 1524 1526 1529 1530 1532 1533 1536 1535 1534 1535 1536 1537 1538 1541 1542 1543 1544 1545 1545
1469 1470 1472 1474 1476 1477 1480 1483 1486 1488 1491 1493 1495 1498 1502 1506 1510 1513 1516 1518 1520 1523 1525 1527 1529 1530 1530 1530 1531 1532 1533 1536 1537 1539 1540 1541 1541 1542
1461 1463 1464 1466 1469 1470 1472 1475 1478 1480 1483 1486 1489 1493 1496 1498 1500 1505 1508 1512 1515 1517 1520 1521 1523 1524 1523 1526 1527 1529 1531 1533 1534 1536 1537 1538 1538 1539
1453 1455 1455 1458 1460 1462 1464 1467 1470 1472 1475 1479 1482 1486 1489 1492 1494 1497 1500 1504 1507 1511 1514 1515 1516 1517 1519 1522 1523 1525 1527 1530 1531 1533 1534 1534 1536 1537
1444 1445 1447 1450 1452 1455 1457 1460 1462 1465 1468 1471 1475 1478 1481 1485 1487 1490 1493 1496 1500 1504 1507 1508 1510 1512 1514 1517 1519 1522 1524 1526 1527 1528 1531 1532 1533 1534
1436 1436 1439 1441 1443 1445 1448 1451 1453 1457 1461 1463 1467 1470 1474 1477 1480 1483 1486 1489 1493 1496 1500 1503 1504 1507 1510 1513 1516 1519 1522 1523 1524 1526 1527 1528 1529 1530
1430 1430 1431 1433 1434 1436 1438 1441 1445 1449 1452 1455 1457 1461 1465 1469 1472 1475 1477 1480 1485 1490 1494 1497 1500 1503 1507 1510 1513 1517 1518 1520 1521 1522 1522 1522 1522 1524
1422 1422 1423 1425 1426 1427 1428 1431 1434 1438 1442 1445 1448 1451 1456 1460 1464 1467 1471 1476 1481 1484 1488 1492 1496 1500 1503 1506 1509 1512 1514 1516 1517 1517 1517 1518 1518 1520
1415 1415 1416 1415 1416 1417 1419 1422 1423 1426 1430 1433 1439 1443 1447 1451 1457 1460 1465 1468 1475 1480 1485 1489 1492 1496 1499 1502 1506 1509 1511 1513 1513 1513 1513 1515 1515 1517
1408 1408 1408 1407 1408 1409 1410 1411 1413 1416 1420 1424 1429 1433 1438 1444 1449 1456 1460 1464 1469 1475 1480 1485 1488 1492 1496 1499 1503 1506 1508 1509 1509 1509 1509 1510 1511 1512